Location: Altavilla Irpina
(41.0000°N, 14.7833°E)
Time: 06:59:01
(UTC+00:00)

Lacrosse 5 rocket - Pass Details

Date: 19 May 2025
Orbit: 419 x 516 km, 57.0° (Epoch: 14 June)

Event Time Altitude Azimuth Distance (km) Brightness Sun altitude
Rises 19:45:50 0° 323° (NW) 2,484 6.5 -14.6°
Reaches altitude 10° 19:48:14 10° 336° (NNW) 1,587 4.8 -14.9°
Maximum altitude 19:51:17 26° 35° (NE) 905 2.5 -15.3°
Enters shadow 19:52:58 18° 78° (ENE) 1,147 2.6 -15.5°
